DELTA 1 DEB, 10252

Orbit data source: Space-Track

DELTA 1 DEB, 10252 is space debris in LEO originally from a launch on Thu, 14 Jul 1977 UTC launched from the Air Force Eastern Test Range (AFETR). Debris objects in space refer to the collection of defunct objects orbiting the Earth. Examples of debris include non-operational satellites, rocket bodies, and fragments generated from explosions, collisions, or faulty payload assembly.

Loading next visibility...
Identifier
10252, 1977-065CD
Orbit
LEO
Country
Flag of USUS
Related business
Manufacturer
Unknown
Mission
Spacecraft
Bus & Motor
Unknown
Mass
Unknown
Launch date (UTC)
1977-07-14 (49 years ago)
Launch vehicle
Unknown
Launch site
Air Force Eastern Test Range (AFETR)
Object type
Payload
Rocket body
Debris
Shape & HBR
Unknown shape, 0.2 m
Radar Cross Section
Small (<0.1 m²)

Expand to show TLE details & history
Last TLE update: 16 hours ago

TLE from 16 hours ago
0 DELTA 1 DEB
1 10252U 77065CD  26132.86178882  .00001527  00000-0  63185-3 0  9998
2 10252  28.8442 337.1681 0754912 139.8292 226.0607 13.27796382335148
Epoch: 2026-05-12T20:40Z
TLE epoch observation values (Epoch: 2026-05-12T20:40:58.554Z)
Latitude
0.00004°
Longitude
156.29411°
Altitude
1,568.627 km
Speed
6.888 km/s
True Right ascension
22h 28m 40s
True Declination
0° 00' 00"
Sunlit
Object was in daylight at epoch
Visualization orbit readout
Latitude
Unknown
Longitude
Unknown
Altitude
Unknown
Speed
Unknown
Apparent Right ascension
Unknown
Apparent Declination
Unknown
Sunlit
N/A
Visualization observer readout
Local Sidereal Time
20:52:38
Azimuth
Unknown
Elevation
Unknown
Doppler factor
Unknown
Orbital elements
Apogee altitude
1,727.913 km
Perigee altitude
589.948 km
Semi-major axis
7,537.068 km
Eccentricity
0.07549
Inclination
28.8442°
RAAN
337.1681°
Arg. of periapsis
139.8292°
True anomaly
220.22525°
Mean anomaly
226.0607°
Eccentric anomaly
223.10504°
Mean motion
3.31695 °/min
Orbital period
108.53 mins
BSTAR
0.00063185
Loading maneuver chart data...
Computing Atmospheric mass density...

Documentation

Showing up to 5 results
|